This is the latest recevied weather packets stored in our database for station/object KH6DH-13. If no packets are shown the sender has not sent any weather packets the latest 10 day(s).
| Time | Temp. | Humidity | Pressure | Rain* | Wind** | Luminosity | Snow |
|---|---|---|---|---|---|---|---|
| 1788578358 | 30° C | - | - | 0 mm | 2.24 m/s, 97° | - | - |
| 1788577755 | 30° C | - | - | 0 mm | 1.34 m/s, 90° | - | - |
| 1788577152 | 30° C | - | - | 0 mm | 0.45 m/s, 80° | - | - |
| 1788576551 | 30° C | - | - | 0 mm | 2.68 m/s, 128° | - | - |
| 1788575950 | 30° C | - | - | 0 mm | 2.24 m/s, 48° | - | - |
| 1788575349 | 30° C | - | - | 0 mm | 0 m/s | - | - |
| 1788574748 | 29.44° C | - | - | 0 mm | 1.79 m/s, 105° | - | - |
| 1788574147 | 29.44° C | - | - | 0 mm | 1.34 m/s, 58° | - | - |
| 1788573546 | 30° C | - | - | 0 mm | 1.79 m/s, 35° | - | - |
| 1788572945 | 30° C | - | - | 0 mm | 0.89 m/s, 75° | - | - |
| 1788572344 | 30° C | - | - | 0 mm | 1.34 m/s, 77° | - | - |
| 1788571743 | 29.44° C | - | - | 0 mm | 0.45 m/s, 136° | - | - |
| 1788571142 | 29.44° C | - | - | 0 mm | 0.45 m/s, 107° | - | - |
| 1788570541 | 29.44° C | - | - | 0 mm | 2.68 m/s, 35° | - | - |
| 1788569940 | 29.44° C | - | - | 0 mm | 2.24 m/s, 28° | - | - |
| 1788569339 | 29.44° C | - | - | 0 mm | 2.24 m/s, 96° | - | - |
| 1788568738 | 29.44° C | - | - | 0 mm | 3.13 m/s, 127° | - | - |
| 1788568137 | 28.89° C | - | - | 0 mm | 2.68 m/s, 97° | - | - |
| 1788567536 | 28.89° C | - | - | 0 mm | 4.47 m/s, 120° | - | - |
| 1788566935 | 28.89° C | - | - | 0 mm | 1.34 m/s, 333° | - | - |
| 1788566334 | 28.89° C | - | - | 0 mm | 1.79 m/s, 52° | - | - |
| 1788565733 | 27.78° C | - | - | 0 mm | 2.24 m/s, 49° | - | - |
| 1788565132 | 27.78° C | - | - | 0 mm | 1.79 m/s, 38° | - | - |
| 1788564531 | 27.78° C | - | - | 0 mm | 1.79 m/s, 176° | - | - |
| 1788563930 | 27.78° C | - | - | 0 mm | 1.34 m/s, 111° | - | - |
* Rain latest hour (hover to see other rain measurements)
** Current wind speed in m/s (hover to see current wind gust speed)